Total_Precipitation_Accumulation
1.78 2.03 1.78 1.25 1.05 0.91 0.80 0.70 0.61 0.43 0.36 0.49 0.45 0.31 0.23 0.26 0.32 0.36 0.38 0.46 0.50 0.52 0.54 0.61 0.71 0.86 1.03 1.17 1.31 1.51 1.87 2.07 2.35 2.44 2.36 2.26 2.28 2.27 2.29 2.29 2.20 2.08 2.01 1.90
1.86 1.54 0.90 0.68 0.72 0.85 0.92 0.87 0.65 0.49 0.40 0.51 0.46 0.31 0.23 0.25 0.31 0.34 0.38 0.45 0.50 0.55 0.62 0.66 0.80 0.96 1.03 1.08 1.22 1.39 1.68 1.91 2.07 2.11 2.11 2.07 2.02 2.06 2.11 2.18 2.27 2.28 2.18 2.04
1.32 0.89 0.59 0.75 0.89 1.06 1.01 0.85 0.67 0.62 0.60 0.65 0.63 0.54 0.31 0.28 0.31 0.33 0.39 0.43 0.45 0.51 0.56 0.58 0.71 0.96 1.08 1.07 1.16 1.30 1.52 1.73 1.96 2.17 2.30 2.32 2.41 2.35 2.20 2.10 2.13 2.19 2.15 2.05
0.94 0.61 0.68 0.91 0.93 0.99 1.04 0.65 0.62 0.69 0.98 1.16 0.92 1.03 0.48 0.33 0.35 0.33 0.37 0.46 0.44 0.48 0.54 0.55 0.64 0.87 1.05 1.06 1.20 1.36 1.54 1.77 1.92 2.16 2.29 2.16 2.14 2.20 2.02 1.90 1.87 2.01 2.14 2.11
1.01 0.67 0.77 0.92 0.77 0.75 0.76 0.60 0.73 0.87 1.14 1.32 0.99 1.09 0.60 0.35 0.44 0.41 0.40 0.49 0.47 0.48 0.54 0.54 0.59 0.79 1.00 1.11 1.22 1.43 1.57 1.80 1.97 2.09 2.16 2.10 2.00 1.93 2.01 2.10 2.06 1.98 2.00 2.10
0.79 0.63 0.75 0.68 0.57 0.66 0.75 0.96 1.23 1.39 1.89 2.05 0.93 0.88 0.69 0.54 0.58 0.51 0.48 0.53 0.52 0.52 0.56 0.61 0.64 0.78 0.95 1.08 1.22 1.38 1.63 1.80 2.02 2.12 2.10 1.95 1.85 1.81 1.88 1.97 2.13 2.15 2.08 2.09
1.15 0.85 0.80 0.72 0.91 1.07 1.25 1.85 2.85 3.16 3.09 1.85 0.54 0.59 0.71 0.58 0.54 0.55 0.56 0.57 0.56 0.59 0.63 0.64 0.66 0.75 0.84 0.98 1.15 1.30 1.50 1.79 2.00 2.14 2.08 1.88 1.75 1.72 1.75 1.81 1.92 2.01 2.06 2.08
1.33 1.16 0.85 0.84 1.09 1.36 1.32 1.52 2.07 2.18 1.62 0.80 0.43 0.54 0.59 0.52 0.46 0.47 0.49 0.54 0.50 0.58 0.68 0.67 0.64 0.72 0.80 0.92 1.08 1.26 1.40 1.66 1.91 2.05 2.05 1.94 1.72 1.66 1.70 1.76 1.80 1.84 1.78 1.77
1.33 1.04 0.66 0.63 0.67 0.87 1.25 1.26 1.06 1.41 1.02 0.68 0.59 0.50 0.43 0.38 0.36 0.41 0.47 0.56 0.57 0.61 0.71 0.74 0.72 0.76 0.80 0.91 1.05 1.23 1.37 1.55 1.80 2.01 2.03 2.00 1.84 1.71 1.69 1.73 1.75 1.82 1.79 1.71
1.47 1.26 0.74 0.70 0.81 0.97 1.08 1.18 1.40 1.93 1.62 0.94 0.56 0.45 0.52 0.46 0.41 0.42 0.47 0.59 0.60 0.60 0.68 0.75 0.76 0.79 0.83 0.95 1.07 1.21 1.36 1.49 1.66 1.87 1.99 1.99 2.01 1.85 1.78 1.79 1.78 1.75 1.80 1.79
1.39 1.50 1.11 1.03 1.23 1.22 1.17 1.46 1.74 1.78 1.41 1.18 0.79 0.59 0.56 0.48 0.42 0.41 0.43 0.54 0.60 0.64 0.70 0.79 0.82 0.81 0.85 0.99 1.12 1.18 1.28 1.46 1.62 1.71 1.79 1.88 2.02 1.92 1.85 1.85 1.80 1.73 1.72 1.81
1.41 1.70 1.38 1.01 0.84 0.78 0.99 1.24 1.45 1.81 1.39 0.91 0.88 0.70 0.47 0.39 0.36 0.35 0.38 0.47 0.56 0.61 0.69 0.71 0.77 0.80 0.80 0.92 1.11 1.21 1.28 1.33 1.52 1.67 1.72 1.79 1.93 1.99 1.90 1.87 1.82 1.70 1.61 1.65
1.86 2.24 2.02 1.67 1.40 1.16 1.24 1.14 1.18 1.34 1.39 1.05 0.93 0.68 0.44 0.38 0.36 0.34 0.35 0.41 0.53 0.61 0.68 0.70 0.71 0.74 0.79 0.86 1.00 1.14 1.23 1.26 1.37 1.60 1.63 1.71 1.83 1.90 1.89 1.84 1.85 1.79 1.73 1.73
2.20 2.27 1.65 1.53 1.36 1.25 1.21 0.97 0.96 1.38 1.68 1.08 0.71 0.58 0.47 0.46 0.46 0.44 0.39 0.41 0.52 0.62 0.67 0.67 0.69 0.73 0.79 0.86 0.95 1.02 1.09 1.22 1.34 1.56 1.67 1.66 1.71 1.75 1.80 1.83 1.80 1.86 1.92 1.96
2.08 1.99 0.91 0.56 0.52 0.63 0.76 0.70 0.73 0.98 1.01 0.91 0.57 0.51 0.59 0.59 0.58 0.55 0.52 0.49 0.51 0.65 0.68 0.67 0.72 0.74 0.79 0.88 0.96 0.96 1.02 1.11 1.26 1.46 1.59 1.63 1.65 1.77 1.88 1.93 1.97 1.93 2.03 2.09
1.88 1.80 0.91 0.56 0.37 0.45 0.57 0.49 0.52 0.57 0.57 0.61 0.50 0.56 0.59 0.56 0.51 0.51 0.52 0.51 0.53 0.64 0.69 0.71 0.72 0.76 0.81 0.87 0.94 0.93 0.93 1.03 1.17 1.35 1.44 1.51 1.64 1.76 1.93 2.00 2.08 2.09 2.09 2.14
1.63 1.59 1.39 0.92 0.46 0.70 0.87 0.61 0.53 0.54 0.54 0.56 0.63 0.66 0.59 0.56 0.54 0.55 0.55 0.55 0.56 0.56 0.60 0.66 0.74 0.79 0.82 0.85 0.87 0.91 0.91 0.93 1.04 1.21 1.32 1.40 1.56 1.66 1.76 1.83 1.88 1.94 1.91 1.90
1.33 1.45 1.77 1.32 0.97 1.33 0.78 0.48 0.46 0.49 0.54 0.56 0.59 0.60 0.60 0.64 0.63 0.58 0.57 0.59 0.59 0.57 0.56 0.59 0.70 0.77 0.75 0.78 0.84 0.86 0.87 0.88 0.97 1.09 1.20 1.24 1.39 1.54 1.59 1.64 1.68 1.72 1.68 1.71
0.87 1.42 2.04 1.71 1.27 0.78 0.43 0.37 0.50 0.59 0.66 0.59 0.55 0.53 0.53 0.55 0.58 0.61 0.59 0.58 0.60 0.59 0.56 0.59 0.67 0.71 0.71 0.75 0.81 0.80 0.81 0.82 0.90 0.99 1.07 1.10 1.19 1.38 1.41 1.49 1.58 1.57 1.59 1.61
0.90 1.40 2.16 1.84 1.42 0.77 0.44 0.29 0.35 0.53 0.77 0.54 0.49 0.53 0.55 0.56 0.76 0.74 0.67 0.64 0.62 0.58 0.56 0.61 0.66 0.64 0.67 0.73 0.74 0.73 0.75 0.78 0.85 0.92 0.99 1.01 1.04 1.18 1.22 1.27 1.36 1.39 1.42 1.49
1.26 1.82 2.02 1.51 1.22 0.59 0.37 0.29 0.33 0.80 0.95 0.53 0.50 0.56 0.60 0.71 0.83 0.76 0.70 0.68 0.65 0.63 0.62 0.61 0.63 0.65 0.69 0.73 0.75 0.75 0.74 0.76 0.81 0.84 0.89 0.93 0.99 1.07 1.10 1.14 1.19 1.27 1.33 1.40
0.86 1.18 1.19 1.12 1.27 0.71 0.37 0.38 0.66 0.83 0.52 0.46 0.49 0.52 0.57 0.58 0.55 0.57 0.61 0.62 0.61 0.62 0.63 0.62 0.64 0.69 0.70 0.71 0.70 0.68 0.75 0.75 0.77 0.82 0.88 0.93 0.97 1.00 1.01 1.06 1.14 1.16 1.27 1.41
0.62 0.80 0.87 0.85 0.79 0.58 0.46 0.54 0.59 0.49 0.44 0.40 0.44 0.48 0.51 0.54 0.53 0.57 0.58 0.58 0.59 0.60 0.60 0.61 0.65 0.69 0.68 0.68 0.67 0.67 0.73 0.74 0.75 0.80 0.86 0.93 0.98 1.00 1.04 1.07 1.14 1.19 1.29 1.43
0.52 0.48 0.60 0.57 0.47 0.40 0.40 0.41 0.42 0.40 0.41 0.40 0.42 0.47 0.48 0.53 0.53 0.56 0.56 0.57 0.58 0.56 0.56 0.55 0.60 0.65 0.67 0.69 0.70 0.70 0.72 0.75 0.77 0.81 0.82 0.87 0.98 1.05 1.05 1.08 1.14 1.18 1.25 1.41
0.46 0.46 0.56 0.51 0.36 0.32 0.31 0.32 0.37 0.39 0.37 0.36 0.38 0.41 0.44 0.46 0.48 0.50 0.54 0.56 0.57 0.57 0.55 0.53 0.56 0.63 0.68 0.69 0.70 0.73 0.77 0.81 0.83 0.81 0.81 0.84 0.94 1.01 1.05 1.09 1.14 1.20 1.20 1.42
0.36 0.44 0.56 0.51 0.35 0.39 0.35 0.29 0.31 0.35 0.35 0.34 0.36 0.38 0.37 0.39 0.44 0.45 0.48 0.51 0.52 0.55 0.56 0.55 0.54 0.61 0.66 0.69 0.73 0.77 0.85 0.88 0.88 0.87 0.86 0.88 0.94 0.97 1.00 1.04 1.12 1.23 1.25 1.33